Wind_Speed
17 16 16 15 14 13 13 13 13 12 11 11 11 10 10 9 9 10 10 9 10 9 9 9 8 7 7 6 6 6 5 7 8 8 8 8 8 8 7 6 5 4
19 17 16 16 15 14 14 14 14 13 13 12 11 11 11 11 10 10 10 10 10 10 10 10 9 9 8 7 7 7 6 7 8 8 9 8 8 8 8 8 7 6
19 19 18 17 17 16 15 15 14 14 14 13 12 12 12 12 12 11 11 11 10 10 10 10 10 10 9 8 8 8 7 7 8 8 8 9 9 8 9 9 8 8
20 20 20 19 18 17 16 16 15 15 14 14 14 13 12 12 13 13 12 12 11 11 11 11 11 11 10 9 9 8 8 8 8 7 7 8 9 9 9 9 8 8
22 21 20 19 18 18 17 17 17 16 15 15 15 15 14 13 14 14 13 13 12 12 12 12 11 11 11 11 10 9 9 9 9 8 8 8 9 9 9 9 9 9
22 21 21 20 19 19 19 18 18 17 17 16 16 16 15 15 15 15 15 14 14 13 13 12 12 12 12 12 11 10 10 10 9 10 10 9 9 10 9 9 10 9
22 22 22 21 20 20 20 19 18 18 17 17 17 17 16 16 16 16 16 15 15 14 14 13 13 13 13 13 12 11 11 10 9 10 11 11 10 10 10 9 9 10
22 22 22 21 20 20 21 20 19 19 18 18 17 18 18 17 18 17 17 16 15 15 14 14 14 14 14 13 13 13 12 11 11 11 12 12 11 11 11 10 10 10
22 21 22 22 22 21 21 21 21 20 19 19 19 19 19 19 18 18 18 18 17 16 16 15 15 15 15 15 14 14 14 13 12 12 13 13 12 13 12 12 11 12
22 22 22 22 22 22 22 22 22 21 20 21 20 20 19 19 19 19 19 19 19 18 18 18 17 17 16 16 15 15 15 14 14 13 14 14 14 14 13 13 13 13
23 23 23 23 23 22 22 22 22 22 22 21 21 21 20 20 20 20 19 20 20 20 20 20 19 19 18 17 17 16 16 15 15 14 14 14 14 14 14 14 14 14
22 23 23 24 24 23 23 23 22 22 22 22 22 22 22 21 21 21 21 21 21 21 21 21 21 20 20 19 18 17 17 16 16 16 15 15 15 15 15 16 16 16
20 21 22 23 23 23 23 23 23 23 23 22 22 23 23 23 22 22 22 22 22 22 22 22 22 22 21 21 20 19 18 18 17 17 17 16 16 16 17 17 17 17
20 20 20 21 22 23 23 23 23 23 23 22 22 23 24 24 24 23 23 23 23 23 23 23 23 23 23 22 22 21 20 19 19 19 18 17 17 17 17 17 17 18
18 18 18 18 20 21 22 23 23 23 23 23 23 23 23 23 24 24 24 23 23 24 24 24 24 24 24 24 24 23 22 21 20 20 19 19 18 18 18 17 18 18
14 16 17 17 18 19 20 21 22 23 23 24 24 24 24 24 24 24 24 24 24 24 24 24 25 25 25 27 27 25 24 23 22 21 21 20 19 19 19 19 19 19
13 15 16 17 18 18 19 20 21 22 23 23 24 25 24 24 24 24 25 25 25 25 25 25 25 25 27 29 30 29 27 24 23 22 21 21 21 20 20 19 19 19
18 15 15 17 18 18 19 20 20 20 21 22 24 25 25 25 25 25 26 26 26 26 26 26 26 27 28 30 32 33 31 27 24 23 23 22 22 22 21 21 20 20
22 20 16 16 17 19 19 20 20 20 21 22 23 24 24 25 26 26 26 26 26 27 27 27 26 27 29 31 32 34 35 33 27 24 24 24 23 23 23 22 22 21
20 21 19 17 17 18 18 19 20 20 21 21 22 22 23 24 25 26 26 27 27 27 27 27 27 27 29 32 34 34 36 37 33 27 25 25 25 25 25 24 24 23
17 19 19 19 18 19 18 19 20 21 21 21 20 21 22 23 25 25 25 25 26 27 27 28 27 27 27 30 34 36 36 37 36 31 27 27 27 26 26 25 25 24
16 17 19 19 17 17 17 17 18 18 19 19 19 19 19 20 22 23 24 25 26 26 26 27 28 28 29 30 31 33 35 36 37 35 30 28 28 28 28 27 26 25
16 17 20 20 17 14 13 13 14 16 16 15 14 15 18 19 19 18 19 21 24 25 25 26 26 27 29 30 30 31 33 35 37 37 32 29 28 28 28 28 27 27
17 17 18 20 20 17 11 11 14 16 16 15 13 14 19 23 23 22 21 21 23 23 23 24 25 25 26 29 30 31 32 34 35 34 31 28 27 27 27 27 28 29
15 15 16 16 18 17 13 13 16 15 12 11 11 13 19 24 25 26 26 25 23 21 21 23 24 23 23 25 29 31 32 34 34 29 26 26 25 25 26 27 28 29
14 14 15 15 15 14 12 13 14 13 12 14 14 13 16 20 21 22 25 28 28 24 22 22 22 21 21 22 24 28 31 33 33 28 24 25 24 24 25 26 27 28
Wind_Direction
196 196 196 198 199 199 199 199 199 198 199 196 195 196 195 192 191 188 186 185 185 184 185 190 196 199 199 201 202 202 200 199 201 201 204 209 211 214 216 214 222 236
195 196 196 198 199 200 200 199 200 200 200 200 196 196 196 194 191 190 190 188 190 193 192 192 197 200 202 202 204 206 205 201 202 201 199 204 210 214 217 219 219 222
195 196 196 199 199 200 201 200 201 201 201 200 198 196 196 195 192 191 193 193 196 199 197 198 198 198 201 200 201 208 207 203 206 204 199 202 210 217 220 222 224 217
197 198 199 201 201 200 201 202 202 202 202 202 200 200 199 196 194 193 194 196 200 202 201 204 205 201 201 201 202 209 211 209 207 204 203 205 210 218 221 223 227 224
198 199 200 203 203 201 201 203 205 203 204 203 201 203 201 197 197 196 197 198 200 204 205 205 208 206 203 203 205 210 215 214 206 203 208 209 210 216 219 218 221 226
199 199 201 203 203 203 203 204 207 205 206 205 202 204 203 200 201 200 200 202 202 206 207 205 207 209 207 206 207 211 216 217 207 205 211 213 214 217 216 217 215 219
198 199 200 202 202 204 205 205 207 207 208 206 204 206 205 202 204 204 203 205 206 207 209 207 207 208 209 207 209 213 217 220 211 206 213 215 216 220 220 218 214 216
199 199 198 202 203 204 206 206 206 206 207 207 206 206 207 206 206 206 207 207 207 208 210 211 208 208 211 210 211 213 215 219 215 209 214 217 216 220 222 220 217 218
199 200 199 201 203 205 207 207 206 205 204 206 208 207 207 209 209 209 208 208 209 208 209 212 211 209 212 214 213 214 215 219 218 214 216 218 219 220 220 220 219 220
198 201 202 203 205 207 208 208 207 206 203 205 209 210 208 208 210 211 209 208 209 209 208 210 212 211 212 214 215 215 216 219 221 220 219 220 221 222 221 221 221 221
199 202 204 206 208 209 209 211 210 208 205 205 208 212 211 208 209 211 210 209 209 210 209 209 211 212 212 213 215 216 216 219 221 222 224 224 224 225 224 222 222 223
202 205 205 207 210 212 212 212 214 212 209 207 208 212 213 211 209 209 210 211 210 211 212 211 212 213 213 213 214 215 215 218 221 222 223 225 226 227 227 225 224 225
209 209 208 210 210 213 215 213 215 216 213 211 209 211 214 214 212 209 209 212 212 213 214 214 213 213 214 214 215 216 215 216 220 221 222 224 225 227 227 226 226 226
215 213 211 214 212 212 217 218 218 218 217 216 213 212 215 217 217 213 210 211 213 214 215 215 214 214 214 214 214 216 216 217 220 221 222 222 223 227 228 228 228 227
213 215 212 215 216 214 215 218 221 220 219 219 218 218 217 218 220 219 215 213 213 214 216 216 216 216 214 214 213 213 215 218 219 221 222 223 223 225 226 228 229 229
215 219 216 213 215 217 216 217 221 223 223 222 222 223 222 220 221 223 221 217 214 214 216 217 218 218 216 214 213 212 214 217 219 220 222 224 225 226 227 228 229 231
235 223 221 217 214 216 218 218 220 222 225 225 224 225 226 224 223 225 226 224 221 217 216 217 220 221 219 217 216 214 213 215 219 221 223 224 225 226 228 230 230 232
266 239 226 223 220 217 218 220 221 222 224 225 225 225 225 225 225 226 226 227 227 225 221 220 222 222 221 220 219 218 216 216 219 222 224 225 227 227 228 230 232 233
282 260 239 229 227 225 223 222 222 222 223 224 225 224 223 224 225 226 228 228 230 230 228 226 225 223 222 222 222 221 220 219 221 224 226 227 228 229 230 230 231 233
300 282 264 250 239 232 230 230 229 228 228 228 227 226 225 225 225 226 226 227 229 232 233 233 232 227 223 223 223 224 224 223 223 226 230 231 231 232 232 232 231 232
317 306 288 275 262 250 241 236 233 234 235 234 234 232 229 228 228 228 229 228 229 230 232 234 235 234 230 227 225 225 226 226 226 228 233 235 235 234 235 235 233 232
324 316 305 296 286 276 269 260 252 250 250 249 250 251 248 242 236 233 232 231 230 230 233 236 235 235 234 232 230 228 226 227 227 229 234 238 239 238 236 236 235 233
333 324 315 307 300 299 303 300 290 283 280 278 279 282 283 279 274 269 262 254 246 237 234 236 237 237 235 234 233 229 226 225 227 228 232 237 240 241 238 237 236 233
334 328 321 314 310 310 319 325 311 296 286 283 282 279 275 271 270 273 276 278 275 264 255 249 244 241 238 236 234 232 227 225 226 227 230 235 238 240 240 239 238 236
328 322 320 322 325 326 327 326 321 315 307 301 292 278 269 263 257 253 248 249 257 263 266 268 264 259 254 245 236 233 231 228 225 225 230 235 237 238 239 239 239 239
326 324 324 327 333 336 328 315 316 324 325 318 309 295 283 277 271 262 253 247 245 241 243 255 263 269 279 276 256 240 233 230 227 227 231 236 236 237 238 238 237 237
Height
834 835 837 839 840 842 843 844 845 846 848 848 850 851 852 853 854 855 856 857 858 859 859 860 861 862 862 863 863 864 865 865 866 867 867 868 869 869 869 869 870 870
831 833 835 837 838 840 841 842 844 845 846 847 848 850 851 852 853 854 855 856 857 858 858 859 860 861 861 862 863 863 864 864 865 866 866 867 868 868 868 869 869 870
829 831 833 834 836 838 839 841 842 843 845 846 847 848 849 850 852 853 854 855 856 857 857 858 859 860 860 861 862 862 863 864 864 865 865 866 867 867 867 868 868 868
827 828 830 832 833 835 837 839 840 842 843 844 845 847 847 849 850 851 852 853 854 855 856 857 858 859 859 860 861 862 862 862 863 864 864 865 865 866 866 867 867 867
824 826 828 830 831 833 835 837 838 839 841 842 843 845 846 847 849 850 851 852 853 854 854 856 857 857 858 859 859 860 861 861 861 862 863 864 864 864 865 865 866 866
822 824 826 828 829 831 832 834 836 837 838 840 841 843 844 845 847 848 849 850 851 852 853 854 855 855 856 857 858 859 859 860 860 861 862 862 863 863 863 864 864 865
819 821 823 825 827 829 830 832 834 835 836 837 839 840 842 843 845 846 847 848 849 850 851 852 853 854 855 856 856 857 858 858 859 860 861 861 862 862 862 863 863 864
817 818 821 823 824 826 828 829 831 832 834 835 836 838 839 841 842 843 845 846 847 848 849 850 851 852 853 854 855 855 856 857 857 858 859 859 860 861 861 862 862 863
814 816 818 820 821 823 824 826 828 830 832 833 834 835 837 838 840 841 842 843 844 846 847 848 849 850 851 852 853 854 854 855 856 856 857 858 858 859 859 860 861 861
810 812 815 816 818 820 821 823 825 826 829 830 831 833 834 836 837 838 840 841 842 843 844 846 846 847 849 850 850 852 852 853 854 854 855 856 856 857 857 858 858 859
807 809 811 813 814 816 817 819 821 823 825 827 829 830 831 833 834 836 837 838 839 840 841 843 844 845 846 847 848 849 850 851 852 853 853 854 854 855 855 856 856 857
804 806 807 809 811 812 814 816 818 819 821 823 825 827 828 829 831 833 834 835 836 838 839 840 841 842 843 844 846 847 848 849 850 851 851 852 852 853 853 853 854 854
802 804 805 805 807 809 810 812 814 816 817 819 821 824 825 826 827 829 831 832 833 835 836 837 838 839 841 842 843 844 845 846 847 848 849 849 850 850 851 851 851 852
801 802 803 803 805 806 808 809 810 812 814 816 818 820 821 823 824 825 827 829 830 831 833 834 835 836 838 839 840 842 843 844 845 845 846 847 847 848 848 848 849 849
799 800 800 802 803 804 805 807 808 809 811 813 815 816 818 820 821 822 823 825 827 828 829 831 832 833 834 835 837 838 840 841 842 843 844 844 844 845 845 846 846 846
798 798 798 799 800 801 803 804 806 807 808 809 812 813 815 817 818 819 820 821 823 825 826 828 828 829 830 832 833 835 837 838 839 840 841 842 842 842 843 843 843 843
798 797 797 797 798 799 800 801 803 804 805 807 808 810 812 814 815 817 817 818 819 821 823 824 825 826 827 828 830 832 834 835 836 838 839 839 840 840 840 840 840 840
800 798 796 796 795 796 797 799 800 801 802 804 805 807 809 810 812 814 814 815 816 817 819 820 821 822 823 825 827 829 831 833 834 835 836 836 837 837 837 837 837 838
804 800 797 795 794 794 795 796 797 799 799 801 802 804 806 807 809 811 812 813 814 814 815 816 817 819 820 822 823 825 828 830 831 833 833 833 834 834 834 835 835 835
807 803 798 796 794 793 793 794 795 796 797 799 800 801 803 804 806 807 809 810 811 812 812 813 814 815 816 818 820 822 824 826 828 830 830 830 831 831 831 831 832 832
806 805 801 798 795 793 793 792 794 795 796 798 799 800 801 802 804 805 806 807 808 809 810 810 811 813 814 815 816 819 821 824 826 827 828 828 828 828 828 829 829 829
804 804 802 799 797 795 794 793 794 796 797 799 799 800 801 802 803 803 804 805 805 806 807 807 808 810 811 812 814 816 819 821 823 825 825 825 825 825 826 826 826 827
802 802 802 800 798 795 795 795 796 798 799 800 801 803 804 804 805 806 806 806 805 805 805 805 806 808 809 810 812 814 817 819 820 822 822 823 823 823 823 823 823 824
802 802 802 801 798 795 796 796 797 798 799 799 801 802 802 803 804 805 807 808 807 807 806 805 806 807 808 809 810 812 814 816 818 820 820 820 820 821 821 821 821 821
806 805 804 802 799 798 797 797 797 798 799 799 800 800 799 798 799 800 800 801 803 804 805 807 808 808 808 808 809 811 813 814 816 818 818 818 818 818 818 818 818 818
806 805 804 802 800 798 797 797 797 798 799 800 800 800 799 798 798 799 798 797 797 798 799 801 804 807 810 811 810 810 811 812 814 815 815 816 816 816 816 815 815 815